Tracking 32938 objects as of 12-Jan-2026
HD Live streaming from Space Station
objects crossing your sky now

DISKSAT D

Track DISKSAT D now!
10-day predictions


NORAD ID: 67221
Int'l Code: 2025-305C
Perigee: 553.3 km
Apogee: 556.3 km
Inclination: 45.0 °
Period: 95.6 minutes
Semi major axis: 6925 km
RCS: Unknown
Launch date: December 18, 2025
Source: United States (US)
Launch site: WALLOPS ISLAND (WLPIS)
Your satellite tracking list
Your tracking list is empty




NASA's NSSDC Master Catalog

Two Line Element Set (TLE):
1 67221U 25305C   26011.86829315  .00010157  00000-0  69635-3 0  9991
2 67221  45.0015 191.3261 0002204  23.2498 336.8477 15.06260044  3722
Source of the keplerian elements: AFSPC